Location: *
(47.7167°N, 1.7333°W)
Time: 05:51:30
(UTC+00:00)

MetOp-B - Pass Details

Date: 09 April 2020
Orbit: 819 x 822 km, 98.7° (Epoch: 29 May)

Event Time Altitude Azimuth Distance (km) Brightness Sun altitude
Exits shadow 20:32:22 26° 139° (SE) 1,559 5.0 -16.8°
Maximum altitude 20:35:17 59° 70° (ENE) 948 4.2 -17.2°
Drops below altitude 10° 20:40:34 10° 352° (N) 2,431 7.2 -17.9°
Sets 20:42:57 0° 349° (N) 3,368 8.1 -18.3°
